Regional Weather Roundup
Issued by NWS Cleveland, OH

Home | Current Version | Previous Version | Graphics & Text | Print | Product List | Glossary On
Versions: 1 2 3 4 5 6 7 8 9 10 11 12 13 14 15 16 17 18 19 20 21 22 23 24 25 26 27 28 29 30 31 32 33 34 35 36 37 38 39 40 41 42 43 44 45 46 47 48 49 50
000
ASUS41 KCLE 192302
RWRCLE
OHIO REGIONAL WEATHER ROUNDUP
NATIONAL WEATHER SERVICE CLEVELAND, OH
700 PM EDT SUN APR 19 2015

NOTE: "FAIR" INDICATES FEW OR NO CLOUDS BELOW 12,000 FEET WITH NO
SIGNIFICANT WEATHER AND/OR OBSTRUCTIONS TO VISIBILITY.

OHZ001>008-015>018-024>027-034-035-043-044-200000-
   NORTHWEST OHIO

CITY           SKY/WX    TMP DP  RH WIND       PRES   REMARKS
DEFIANCE       RAIN      49  47  93 NE9       29.55F FOG
FINDLAY        RAIN      59  56  89 E21G30    29.56F FOG
TOLEDO EXPRESS RAIN      46  43  89 E14       29.61F FOG
TOLEDO EXEC    LGT RAIN  48  42  80 E10       29.63F
LIMA           RAIN      60  57  89 E21G36    29.52F FOG
$$

OHZ009>014-019>023-028>033-038-089-200000-
   NORTHEAST OHIO

CITY           SKY/WX    TMP DP  RH WIND       PRES   REMARKS
CLE-HOPKINS    CLOUDY    65  45  48 SE23G38   29.71F
CLE-LAKEFRONT  CLOUDY    66  45  46 SE23G32   29.69F
CUY CO. ARPT   CLOUDY    66  46  48 SE17G29   29.73F
LORAIN-ELYRIA  LGT RAIN  64  47  53 SE23G37   29.67F
ASHTABULA      LGT RAIN  63  43  48 SE16G29   29.79F
AKRON-CANTON   LGT RAIN  58  50  75 SE22G32   29.74F
WOOSTER        LGT RAIN  57  52  83 SE16G33   29.72F
MANSFIELD      LGT RAIN  57  55  93 SE24G32   29.65F FOG
YOUNGSTOWN     LGT RAIN  58  49  72 SE17      29.80F
$$

OHZ042-051>053-060>062-070>072-077>081-200000-
  SOUTHWEST OHIO

CITY           SKY/WX    TMP DP  RH WIND       PRES   REMARKS
CINC-COVINGTON CLOUDY    68  63  84 S13       29.47F
CINC-LUNKEN    LGT RAIN  66  63  90 S10G17    29.48F
HAMILTON       LGT RAIN  66  63  90 VRB5      29.47F
DAYTON         CLOUDY    63  61  93 SE18G31   29.47F
WRIGHT-PAT AFB CLOUDY    63  61  94 SE22      29.49F
DAYTON GENERAL LGT RAIN  64  61  90 SE18G29   29.48S
WILMINGTON     CLOUDY    63  59  87 SE20G30   29.51F
$$

OHZ036-037-039>041-045>050-054>059-063>069-073>076-082>088-200000-
  CENTRAL AND SOUTHEAST OHIO

CITY           SKY/WX    TMP DP  RH WIND       PRES   REMARKS
COLUMBUS       CLOUDY    58  55  90 E22G35    29.59F
OSU AIRPORT    RAIN      58  54  86 SE20G26   29.59F FOG
BOLTON FIELD   RAIN      57  55  94 E21G28    29.59F
RICKENBACK AFB NOT AVBL
NEWARK         LGT RAIN  58  55  90 E10G21    29.63F
MARION         LGT RAIN  57  54  89 SE26G33   29.59F FOG
LANCASTER      CLOUDY    59  55  87 SE16G25   29.61F
ZANESVILLE     CLOUDY    58  52  80 E15G28    29.67F
NEW PHILLY     LGT RAIN  58  53  84 SE12G24   29.73F
$$



USA.gov is the U.S. government's official web portal to all federal, state and local government web resources and services.